Regional Weather Roundup
Issued by NWS

Home | Current Version | Previous Version | Graphics & Text | Print | Product List | Glossary On
Versions: 1 2 3 4 5 6 7 8 9 10 11 12 13 14 15 16 17 18 19 20 21 22 23 24 25 26 27
000
ASUS45 KBOU 222307
RWRCO

WEATHER ROUNDUP FOR COLORADO
NATIONAL WEATHER SERVICE DENVER/BOULDER CO
500 PM MDT SAT APR 22 2017

NOTE: "FAIR" INDICATES FEW OR NO CLOUDS BELOW 12000 FEET WITH NO
SIGNIFICANT WEATHER AND/OR OBSTRUCTIONS TO VISIBILITY.

COZ001>005-013-030-031-230000-
...NORTHWEST COLORADO...

CITY           SKY/WX    TMP DP  RH WIND       PRES   REMARKS
CRAIG          FAIR      59  18  20 S10G17    30.15F
HAYDEN         FAIR      55  19  24 E5        30.15F
MEEKER         FAIR      57  20  23 CALM      30.15F
MOUNT WERNER   NOT AVBL
STEAMBOAT SPGS FAIR      54  19  25 S3        30.17F
WALDEN           N/A     50  19  29 NE6       30.22F
$$

COZ006>008-011-230000-
...WEST CENTRAL VALLEYS...

CITY           SKY/WX    TMP DP  RH WIND       PRES   REMARKS
GRAND JUNCTION FAIR      65  15  14 CALM      30.09F
MONTROSE       FAIR      62  13  14 VRB3      30.14F
EAGLE          SUNNY     55  18  22 NW8       30.18F
RIFLE          FAIR      63  17  17 VRB6      30.12F
DELTA          FAIR      66  16  14 CALM      30.12F
NUCLA          FAIR      64  14  14 W6        30.15F
$$

COZ017>023-064>068-230000-
...SOUTHWEST COLORADO...

CITY           SKY/WX    TMP DP  RH WIND       PRES   REMARKS
DURANGO        FAIR      63  14  15 W10       30.13F
CORTEZ         FAIR      65  14  14 S6        30.11F
PAGOSA SPRINGS FAIR      59   8  13 SW7       30.17S
TELLURIDE      FAIR      54  14  20 W8        30.23S
WOLF CREEK PAS FAIR      36  14  41 S6G16     30.37S
$$

COZ009-010-012-014-032>034-037-058>063-230000-
...CENTRAL COLORADO...

CITY           SKY/WX    TMP DP  RH WIND       PRES   REMARKS
ASPEN          FAIR      54  15  21 VRB6      30.17F
BUENA VISTA    FAIR      52  10  18 SW5       30.21F
COPPER MTN     FAIR      34   7  32 S6        30.33S WCI  29
BERTHOUD PASS  FAIR      25  14  63 S6        30.34S WCI  18
COTTONWOOD PAS FAIR      48   9  20 E3        30.27F
GUNNISON       FAIR      55  11  17 CALM      30.17F
KREMMLING      FAIR      59  18  20 N3        30.20F
LEADVILLE      FAIR      42  10  27 VRB6      30.24F
MONARCH PASS   FAIR      32  16  51 E12G17    30.43S WCI  23
SALIDA         FAIR      54  23  29 SE14G24   30.29S
SUNLIGHT       FAIR      34  18  51 CALM      30.32F
WILKERSON PASS PTSUNNY   28  23  80 CALM      30.36S
$$

COZ069>075-230000-
...SAN LUIS VALLEY/SANGRE DE CRISTO MOUNTAINS...

CITY           SKY/WX    TMP DP  RH WIND       PRES   REMARKS
ALAMOSA        FAIR      56  22  26 E15G21    30.16F
LA VETA PASS   CLOUDY    30  28  93 NE10G18   30.42S FOG     WCI  21
SAGUACHE       FAIR      54  18  24 S8        30.19F
$$

COZ035-036-038>040-230000-
...NORTHERN COLORADO FRONT RANGE...

CITY           SKY/WX    TMP DP  RH WIND       PRES   REMARKS
DENVER INTL AP FAIR      54  26  34 SE12      30.22F
DMNS CITY PARK   N/A     56  26  31 E7G20     30.21S
AURORA         MOSUNNY   55  26  32 S5        30.23F
FRONT RANGE AP PTSUNNY   57  27  30 SE5       30.24F
ERIE MUNI ARPT FAIR      58  25  28 S5        30.22S
BOULDER MUN AP FAIR      55  30  38 CALM      30.21F
CENTENNIAL     FAIR      52  25  35 VRB5      30.23F
BROOMFIELD     MOSUNNY   55  27  33 SE6       30.23F
FORT COLLINS   FAIR      58  32  37 S7        30.22F
LONGMONT       FAIR      60  29  30 S3        30.23F
$$

COZ041-046-047-076>085-087-088-230000-
...PIKES PEAK/PALMER DIVIDE AND SOUTHERN FOOTHILLS...

CITY           SKY/WX    TMP DP  RH WIND       PRES   REMARKS
COLO. SPRINGS  PTSUNNY   50  33  52 SE8       30.27F
A. F. ACADEMY  MOSUNNY   48  32  53 SE7       30.26S
SCHRIEVER AFB  FAIR      47  31  53 S10       30.28S
ELLICOTT       PTSUNNY  N/A N/A N/A W7        30.26F
FALCON         FAIR      48  30  50 SW5       30.29S
FORT CARSON    FAIR      51  33  49 SE7       30.26F
LIMON          FAIR      52  26  36 S3        30.25F
MONUMENT HILL  FAIR      43  30  61 SE12      30.27F
TRINIDAD       FAIR      52  28  39 N3        30.27F
$$

COZ042>045-048>051-090-091-230000-
...NORTHEAST COLORADO...

CITY           SKY/WX    TMP DP  RH WIND       PRES   REMARKS
GREELEY ARPT   FAIR      57  34  41 SE9       30.23F
AKRON          FAIR      54  29  38 SE7       30.24F
BURLINGTON     NOT AVBL
WRAY           NOT AVBL
STERLING       FAIR      57  34  41 SW7       30.23S
HOLYOKE        FAIR      61  30  31 W3        30.24S
FORT MORGAN    FAIR      56  30  37 SE6       30.25S
$$

COZ086-089-092>099-230000-
...SOUTHEAST COLORADO...

CITY           SKY/WX    TMP DP  RH WIND       PRES   REMARKS
PUEBLO         FAIR      54  34  46 SE6       30.25F
LA JUNTA       FAIR      56  33  42 VRB3      30.25F
LAMAR          FAIR      56  32  40 N7        30.24F
SPRINGFIELD      N/A     52  30  43 N13       30.26R
$$




USA.gov is the U.S. government's official web portal to all federal, state and local government web resources and services.